Time,TemperatureF,DewpointF,PressureIn,WindDirection,WindDirectionDegrees,WindSpeedMPH,WindSpeedGustMPH,Humidity,HourlyPrecipIn,Conditions,Clouds,dailyrainin,SoftwareType,DateUTC
2013-06-19 00:01:00,61.0,43.0,29.94,West,270,5.0,-999.0,51,-99.99,,,-99.99,,2013-06-19 07:01:00,
2013-06-19 00:11:00,61.0,43.0,29.94,West,260,2.0,-999.0,51,-99.99,,,-99.99,,2013-06-19 07:11:00,
2013-06-19 00:22:00,61.0,43.0,29.94,West,260,3.0,-999.0,51,-99.99,,,-99.99,,2013-06-19 07:22:00,
2013-06-19 00:33:00,61.0,43.0,29.95,North,0,0.0,-999.0,51,-99.99,,,-99.99,,2013-06-19 07:33:00,
2013-06-19 00:43:00,61.0,43.0,29.95,WNW,290,6.0,-999.0,51,-99.99,,,-99.99,,2013-06-19 07:43:00,
2013-06-19 00:53:00,61.0,43.0,29.95,West,260,5.0,-999.0,51,-99.99,,,-99.99,,2013-06-19 07:53:00,
2013-06-19 01:01:00,61.0,43.0,29.95,WNW,290,6.0,-999.0,51,-99.99,,,-99.99,,2013-06-19 08:01:00,
2013-06-19 01:11:00,61.0,43.0,29.96,WSW,240,3.0,-999.0,51,-99.99,,,-99.99,,2013-06-19 08:11:00,
2013-06-19 01:22:00,61.0,43.0,29.96,South,190,2.0,-999.0,51,-99.99,,,-99.99,,2013-06-19 08:22:00,
2013-06-19 01:33:00,61.0,43.0,29.96,North,0,0.0,-999.0,51,-99.99,,,-99.99,,2013-06-19 08:33:00,
2013-06-19 01:42:00,61.0,43.0,29.96,North,0,0.0,-999.0,51,-99.99,,,-99.99,,2013-06-19 08:42:00,
2013-06-19 01:53:00,59.0,43.0,29.96,North,0,0.0,-999.0,54,-99.99,,,-99.99,,2013-06-19 08:53:00,
2013-06-19 02:01:00,57.0,43.0,29.96,North,0,0.0,-999.0,58,-99.99,,,-99.99,,2013-06-19 09:01:00,
2013-06-19 02:11:00,57.0,43.0,29.96,North,0,0.0,-999.0,58,-99.99,,,-99.99,,2013-06-19 09:11:00,
2013-06-19 02:22:00,57.0,43.0,29.96,North,0,0.0,-999.0,58,-99.99,,,-99.99,,2013-06-19 09:22:00,
2013-06-19 02:34:00,57.0,43.0,29.96,North,0,0.0,-999.0,58,-99.99,,,-99.99,,2013-06-19 09:34:00,
2013-06-19 02:43:00,57.0,43.0,29.96,North,0,0.0,-999.0,58,-99.99,,,-99.99,,2013-06-19 09:43:00,
2013-06-19 02:53:00,57.0,43.0,29.97,North,0,0.0,-999.0,58,-99.99,,,-99.99,,2013-06-19 09:53:00,
2013-06-19 03:01:00,57.0,43.0,29.97,North,0,0.0,-999.0,58,-99.99,,,-99.99,,2013-06-19 10:01:00,
2013-06-19 03:11:00,57.0,45.0,29.97,North,0,0.0,-999.0,62,-99.99,,,-99.99,,2013-06-19 10:11:00,
2013-06-19 03:22:00,54.0,43.0,29.97,North,0,0.0,-999.0,66,-99.99,,,-99.99,,2013-06-19 10:22:00,
2013-06-19 03:33:00,54.0,43.0,29.98,North,0,0.0,-999.0,66,-99.99,,,-99.99,,2013-06-19 10:33:00,
2013-06-19 03:42:00,54.0,43.0,29.98,North,0,0.0,-999.0,66,-99.99,,,-99.99,,2013-06-19 10:42:00,
2013-06-19 03:52:00,55.0,43.0,29.98,North,0,0.0,-999.0,62,-99.99,,,-99.99,,2013-06-19 10:52:00,
2013-06-19 04:01:00,54.0,43.0,29.98,North,0,0.0,-999.0,66,-99.99,,,-99.99,,2013-06-19 11:01:00,
2013-06-19 04:11:00,54.0,43.0,29.98,North,0,0.0,-999.0,66,-99.99,,,-99.99,,2013-06-19 11:11:00,
2013-06-19 04:22:00,54.0,43.0,29.98,North,0,0.0,-999.0,66,-99.99,,,-99.99,,2013-06-19 11:22:00,
2013-06-19 04:32:00,54.0,43.0,29.99,North,0,0.0,-999.0,66,-99.99,,,-99.99,,2013-06-19 11:32:00,
2013-06-19 04:42:00,54.0,43.0,29.99,North,0,0.0,-999.0,66,-99.99,,,-99.99,,2013-06-19 11:42:00,
2013-06-19 04:53:00,54.0,43.0,29.99,North,0,0.0,-999.0,66,-99.99,,,-99.99,,2013-06-19 11:53:00,
2013-06-19 05:01:00,54.0,43.0,29.99,North,0,0.0,-999.0,66,-99.99,,,-99.99,,2013-06-19 12:01:00,
2013-06-19 05:11:00,54.0,43.0,29.98,North,0,0.0,-999.0,66,-99.99,,,-99.99,,2013-06-19 12:11:00,
2013-06-19 05:22:00,54.0,43.0,29.98,North,0,0.0,-999.0,66,-99.99,,,-99.99,,2013-06-19 12:22:00,
2013-06-19 05:34:00,52.0,43.0,29.99,North,0,0.0,-999.0,71,-99.99,,,-99.99,,2013-06-19 12:34:00,
2013-06-19 05:44:00,52.0,43.0,29.99,North,0,0.0,-999.0,71,-99.99,,,-99.99,,2013-06-19 12:44:00,
2013-06-19 05:52:00,52.0,43.0,29.99,North,0,0.0,-999.0,71,-99.99,,,-99.99,,2013-06-19 12:52:00,
2013-06-19 06:02:00,52.0,43.0,29.99,North,0,0.0,-999.0,71,-99.99,,,-99.99,,2013-06-19 13:02:00,
2013-06-19 06:11:00,52.0,43.0,29.99,North,0,0.0,-999.0,71,-99.99,,,-99.99,,2013-06-19 13:11:00,
2013-06-19 06:22:00,52.0,43.0,29.99,North,0,0.0,-999.0,71,-99.99,,,-99.99,,2013-06-19 13:22:00,
2013-06-19 06:33:00,52.0,43.0,30.00,North,0,0.0,-999.0,71,-99.99,,,-99.99,,2013-06-19 13:33:00,
2013-06-19 06:42:00,54.0,45.0,30.00,North,0,0.0,-999.0,71,-99.99,,,-99.99,,2013-06-19 13:42:00,
2013-06-19 06:53:00,54.0,45.0,30.00,North,0,0.0,-999.0,71,-99.99,,,-99.99,,2013-06-19 13:53:00,
2013-06-19 07:01:00,54.0,43.0,30.01,North,0,0.0,-999.0,66,-99.99,,,-99.99,,2013-06-19 14:01:00,
2013-06-19 07:11:00,55.0,45.0,30.01,North,0,0.0,-999.0,66,-99.99,,,-99.99,,2013-06-19 14:11:00,
2013-06-19 07:22:00,57.0,45.0,30.02,North,0,0.0,-999.0,62,-99.99,,,-99.99,,2013-06-19 14:22:00,
2013-06-19 07:33:00,57.0,45.0,30.02,North,0,0.0,-999.0,62,-99.99,,,-99.99,,2013-06-19 14:33:00,
2013-06-19 07:43:00,57.0,45.0,30.03,NE,50,3.0,-999.0,62,-99.99,,,-99.99,,2013-06-19 14:43:00,
2013-06-19 07:52:00,59.0,45.0,30.03,NNE,30,1.0,-999.0,58,-99.99,,,-99.99,,2013-06-19 14:52:00,
2013-06-19 08:01:00,61.0,45.0,30.03,NNE,30,2.0,-999.0,55,-99.99,,,-99.99,,2013-06-19 15:01:00,
2013-06-19 08:22:00,61.0,46.0,30.03,North,0,0.0,-999.0,59,-99.99,,,-99.99,,2013-06-19 15:22:00,
2013-06-19 08:33:00,61.0,45.0,30.03,North,0,0.0,-999.0,55,-99.99,,,-99.99,,2013-06-19 15:33:00,
2013-06-19 08:42:00,63.0,46.0,30.04,North,0,0.0,-999.0,55,-99.99,,,-99.99,,2013-06-19 15:42:00,
2013-06-19 08:52:00,64.0,45.0,30.04,NNW,330,2.0,-999.0,48,-99.99,,,-99.99,,2013-06-19 15:52:00,
2013-06-19 09:01:00,64.0,45.0,30.04,West,280,5.0,-999.0,48,-99.99,,,-99.99,,2013-06-19 16:01:00,
2013-06-19 09:11:00,64.0,45.0,30.04,West,280,5.0,-999.0,48,-99.99,,,-99.99,,2013-06-19 16:11:00,
2013-06-19 09:21:00,66.0,45.0,30.04,North,0,0.0,-999.0,45,-99.99,,,-99.99,,2013-06-19 16:21:00,
2013-06-19 09:33:00,66.0,46.0,30.04,NW,320,3.0,-999.0,48,-99.99,,,-99.99,,2013-06-19 16:33:00,
2013-06-19 09:43:00,66.0,41.0,30.04,NNW,340,6.0,-999.0,39,-99.99,,,-99.99,,2013-06-19 16:43:00,
2013-06-19 09:52:00,68.0,43.0,30.05,NW,320,3.0,-999.0,40,-99.99,,,-99.99,,2013-06-19 16:52:00,
2013-06-19 10:02:00,68.0,43.0,30.05,North,10,7.0,-999.0,40,-99.99,,,-99.99,,2013-06-19 17:02:00,
2013-06-19 10:11:00,68.0,43.0,30.05,North,0,8.0,-999.0,40,-99.99,,,-99.99,,2013-06-19 17:11:00,
2013-06-19 10:22:00,68.0,43.0,30.04,North,0,5.0,-999.0,40,-99.99,,,-99.99,,2013-06-19 17:22:00,
2013-06-19 10:33:00,70.0,43.0,30.04,North,360,5.0,-999.0,37,-99.99,,,-99.99,,2013-06-19 17:33:00,
2013-06-19 10:43:00,70.0,43.0,30.04,North,0,0.0,-999.0,37,-99.99,,,-99.99,,2013-06-19 17:43:00,
2013-06-19 10:53:00,70.0,43.0,30.04,North,360,8.0,-999.0,37,-99.99,,,-99.99,,2013-06-19 17:53:00,
2013-06-19 11:01:00,70.0,41.0,30.05,West,280,2.0,-999.0,35,-99.99,,,-99.99,,2013-06-19 18:01:00,
2013-06-19 11:11:00,70.0,41.0,30.05,West,280,2.0,-999.0,35,-99.99,,,-99.99,,2013-06-19 18:11:00,
2013-06-19 11:23:00,70.0,43.0,30.04,North,0,0.0,-999.0,37,-99.99,,,-99.99,,2013-06-19 18:23:00,
2013-06-19 11:33:00,70.0,43.0,30.04,NNE,20,6.0,-999.0,37,-99.99,,,-99.99,,2013-06-19 18:33:00,
2013-06-19 11:43:00,72.0,41.0,30.04,NE,40,6.0,-999.0,33,-99.99,,,-99.99,,2013-06-19 18:43:00,
2013-06-19 11:52:00,72.0,41.0,30.04,NE,40,6.0,-999.0,33,-99.99,,,-99.99,,2013-06-19 18:52:00,
2013-06-19 12:01:00,72.0,41.0,30.05,NNE,30,1.0,-999.0,33,-99.99,,,-99.99,,2013-06-19 19:01:00,
2013-06-19 12:11:00,73.0,41.0,30.05,NW,310,7.0,-999.0,31,-99.99,,,-99.99,,2013-06-19 19:11:00,
2013-06-19 12:22:00,72.0,41.0,30.04,NE,40,3.0,-999.0,33,-99.99,,,-99.99,,2013-06-19 19:22:00,
2013-06-19 12:32:00,72.0,41.0,30.04,North,0,0.0,-999.0,33,-99.99,,,-99.99,,2013-06-19 19:32:00,
2013-06-19 12:43:00,73.0,41.0,30.04,NW,320,6.0,-999.0,31,-99.99,,,-99.99,,2013-06-19 19:43:00,
2013-06-19 12:52:00,73.0,41.0,30.04,West,260,5.0,-999.0,31,-99.99,,,-99.99,,2013-06-19 19:52:00,
2013-06-19 13:02:00,73.0,41.0,30.04,West,280,2.0,-999.0,31,-99.99,,,-99.99,,2013-06-19 20:02:00,
2013-06-19 13:11:00,73.0,41.0,30.04,West,280,2.0,-999.0,31,-99.99,,,-99.99,,2013-06-19 20:11:00,
2013-06-19 13:22:00,75.0,43.0,30.03,NE,40,5.0,-999.0,31,-99.99,,,-99.99,,2013-06-19 20:22:00,
2013-06-19 13:33:00,75.0,43.0,30.03,North,360,6.0,-999.0,31,-99.99,,,-99.99,,2013-06-19 20:33:00,
2013-06-19 13:42:00,75.0,41.0,30.02,NE,40,5.0,-999.0,29,-99.99,,,-99.99,,2013-06-19 20:42:00,
2013-06-19 13:52:00,75.0,41.0,30.02,NNE,30,6.0,-999.0,29,-99.99,,,-99.99,,2013-06-19 20:52:00,
2013-06-19 14:01:00,75.0,43.0,30.02,North,350,7.0,-999.0,31,-99.99,,,-99.99,,2013-06-19 21:01:00,
2013-06-19 14:11:00,75.0,43.0,30.02,North,350,7.0,-999.0,31,-99.99,,,-99.99,,2013-06-19 21:11:00,
2013-06-19 14:22:00,77.0,43.0,30.02,East,80,3.0,-999.0,29,-99.99,,,-99.99,,2013-06-19 21:22:00,
2013-06-19 14:33:00,75.0,43.0,30.01,East,90,5.0,-999.0,31,-99.99,,,-99.99,,2013-06-19 21:33:00,
2013-06-19 14:44:00,75.0,43.0,30.01,ESE,110,6.0,-999.0,31,-99.99,,,-99.99,,2013-06-19 21:44:00,
2013-06-19 14:52:00,75.0,43.0,30.01,North,10,2.0,-999.0,31,-99.99,,,-99.99,,2013-06-19 21:52:00,
2013-06-19 15:01:00,77.0,43.0,30.01,North,360,6.0,-999.0,29,-99.99,,,-99.99,,2013-06-19 22:01:00,
2013-06-19 15:11:00,77.0,43.0,30.00,North,10,9.0,-999.0,29,-99.99,,,-99.99,,2013-06-19 22:11:00,
2013-06-19 15:22:00,77.0,41.0,30.00,NNE,30,3.0,-999.0,27,-99.99,,,-99.99,,2013-06-19 22:22:00,
2013-06-19 15:34:00,77.0,41.0,30.00,ENE,70,3.0,-999.0,27,-99.99,,,-99.99,,2013-06-19 22:34:00,
2013-06-19 15:42:00,79.0,43.0,30.00,East,90,5.0,-999.0,27,-99.99,,,-99.99,,2013-06-19 22:42:00,
2013-06-19 15:53:00,79.0,41.0,29.99,SSE,150,5.0,-999.0,25,-99.99,,,-99.99,,2013-06-19 22:53:00,
2013-06-19 16:01:00,79.0,43.0,29.99,SSE,160,2.0,-999.0,27,-99.99,,,-99.99,,2013-06-19 23:01:00,
2013-06-19 16:11:00,79.0,43.0,29.99,SSE,160,2.0,-999.0,27,-99.99,,,-99.99,,2013-06-19 23:11:00,
2013-06-19 16:22:00,79.0,41.0,29.99,ENE,60,2.0,-999.0,25,-99.99,,,-99.99,,2013-06-19 23:22:00,
2013-06-19 16:33:00,79.0,41.0,29.98,SE,130,6.0,-999.0,25,-99.99,,,-99.99,,2013-06-19 23:33:00,
2013-06-19 16:43:00,79.0,43.0,29.98,SE,130,9.0,-999.0,27,-99.99,,,-99.99,,2013-06-19 23:43:00,
2013-06-19 16:52:00,81.0,43.0,29.98,ESE,110,9.0,-999.0,26,-99.99,,,-99.99,,2013-06-19 23:52:00,
2013-06-19 17:01:00,81.0,43.0,29.98,ESE,110,9.0,-999.0,26,-99.99,,,-99.99,,2013-06-20 00:01:00,
2013-06-19 17:11:00,81.0,43.0,29.98,ESE,110,9.0,-999.0,26,-99.99,,,-99.99,,2013-06-20 00:11:00,
2013-06-19 17:22:00,79.0,43.0,29.97,SSE,150,5.0,-999.0,27,-99.99,,,-99.99,,2013-06-20 00:22:00,
2013-06-19 17:33:00,79.0,43.0,29.97,SE,140,10.0,-999.0,27,-99.99,,,-99.99,,2013-06-20 00:33:00,
2013-06-19 17:43:00,81.0,45.0,29.97,ESE,120,8.0,-999.0,28,-99.99,,,-99.99,,2013-06-20 00:43:00,
2013-06-19 17:52:00,81.0,45.0,29.97,SE,140,12.0,-999.0,28,-99.99,,,-99.99,,2013-06-20 00:52:00,
2013-06-19 18:01:00,81.0,45.0,29.97,SSE,150,6.0,-999.0,28,-99.99,,,-99.99,,2013-06-20 01:01:00,
2013-06-19 18:11:00,81.0,46.0,29.97,South,180,14.0,16.0,30,-99.99,,,-99.99,,2013-06-20 01:11:00,
2013-06-19 18:22:00,81.0,45.0,29.96,SSE,150,9.0,-999.0,28,-99.99,,,-99.99,,2013-06-20 01:22:00,
2013-06-19 18:33:00,81.0,45.0,29.96,SSE,150,12.0,-999.0,28,-99.99,,,-99.99,,2013-06-20 01:33:00,
2013-06-19 18:43:00,79.0,45.0,29.96,SSE,150,8.0,-999.0,29,-99.99,,,-99.99,,2013-06-20 01:43:00,
2013-06-19 18:52:00,79.0,45.0,29.96,SSE,160,8.0,-999.0,29,-99.99,,,-99.99,,2013-06-20 01:52:00,
2013-06-19 19:02:00,81.0,45.0,29.96,South,170,8.0,-999.0,28,-99.99,,,-99.99,,2013-06-20 02:02:00,
2013-06-19 19:11:00,81.0,45.0,29.96,South,180,7.0,-999.0,28,-99.99,,,-99.99,,2013-06-20 02:11:00,
2013-06-19 19:23:00,79.0,46.0,29.96,South,190,9.0,-999.0,31,-99.99,,,-99.99,,2013-06-20 02:23:00,
2013-06-19 19:33:00,79.0,46.0,29.96,South,170,7.0,-999.0,31,-99.99,,,-99.99,,2013-06-20 02:33:00,
2013-06-19 19:43:00,79.0,46.0,29.96,SE,140,7.0,-999.0,31,-99.99,,,-99.99,,2013-06-20 02:43:00,
2013-06-19 19:52:00,79.0,46.0,29.96,SE,140,8.0,-999.0,31,-99.99,,,-99.99,,2013-06-20 02:52:00,
2013-06-19 20:02:00,75.0,46.0,29.96,SSE,150,8.0,-999.0,35,-99.99,,,-99.99,,2013-06-20 03:02:00,
2013-06-19 20:11:00,75.0,46.0,29.96,SSE,150,7.0,-999.0,35,-99.99,,,-99.99,,2013-06-20 03:11:00,
2013-06-19 20:22:00,75.0,46.0,29.96,SSE,150,9.0,-999.0,35,-99.99,,,-99.99,,2013-06-20 03:22:00,
2013-06-19 20:32:00,73.0,48.0,29.96,SSE,150,5.0,-999.0,40,-99.99,,,-99.99,,2013-06-20 03:32:00,
2013-06-19 20:43:00,73.0,48.0,29.96,SE,140,6.0,-999.0,40,-99.99,,,-99.99,,2013-06-20 03:43:00,
2013-06-19 20:53:00,72.0,48.0,29.96,ESE,120,7.0,-999.0,43,-99.99,,,-99.99,,2013-06-20 03:53:00,
2013-06-19 21:01:00,72.0,48.0,29.96,SE,140,3.0,-999.0,43,-99.99,,,-99.99,,2013-06-20 04:01:00,
2013-06-19 21:11:00,72.0,48.0,29.96,ESE,120,3.0,-999.0,43,-99.99,,,-99.99,,2013-06-20 04:11:00,
2013-06-19 21:22:00,70.0,48.0,29.96,SE,140,6.0,-999.0,46,-99.99,,,-99.99,,2013-06-20 04:22:00,
2013-06-19 21:33:00,70.0,48.0,29.96,SE,140,6.0,-999.0,46,-99.99,,,-99.99,,2013-06-20 04:33:00,
2013-06-19 21:43:00,70.0,46.0,29.97,SE,130,7.0,-999.0,43,-99.99,,,-99.99,,2013-06-20 04:43:00,
2013-06-19 21:53:00,68.0,46.0,29.97,SE,140,6.0,-999.0,45,-99.99,,,-99.99,,2013-06-20 04:53:00,
2013-06-19 22:01:00,68.0,46.0,29.97,SE,140,6.0,-999.0,45,-99.99,,,-99.99,,2013-06-20 05:01:00,
2013-06-19 22:11:00,66.0,48.0,29.97,SE,140,3.0,-999.0,52,-99.99,,,-99.99,,2013-06-20 05:11:00,
2013-06-19 22:22:00,64.0,48.0,29.97,SE,140,6.0,-999.0,55,-99.99,,,-99.99,,2013-06-20 05:22:00,
2013-06-19 22:33:00,64.0,48.0,29.98,South,170,2.0,-999.0,55,-99.99,,,-99.99,,2013-06-20 05:33:00,
2013-06-19 22:43:00,64.0,48.0,29.98,South,190,6.0,-999.0,55,-99.99,,,-99.99,,2013-06-20 05:43:00,
2013-06-19 22:52:00,66.0,46.0,29.97,South,180,2.0,-999.0,48,-99.99,,,-99.99,,2013-06-20 05:52:00,
2013-06-19 23:01:00,66.0,46.0,29.97,South,190,3.0,-999.0,48,-99.99,,,-99.99,,2013-06-20 06:01:00,
2013-06-19 23:11:00,64.0,48.0,29.97,South,170,3.0,-999.0,55,-99.99,,,-99.99,,2013-06-20 06:11:00,
2013-06-19 23:22:00,64.0,48.0,29.97,North,0,0.0,-999.0,55,-99.99,,,-99.99,,2013-06-20 06:22:00,
2013-06-19 23:33:00,64.0,46.0,29.97,North,0,0.0,-999.0,51,-99.99,,,-99.99,,2013-06-20 06:33:00,
2013-06-19 23:43:00,61.0,48.0,29.97,SE,140,5.0,-999.0,63,-99.99,,,-99.99,,2013-06-20 06:43:00,
2013-06-19 23:53:00,61.0,48.0,29.97,SSE,150,5.0,-999.0,63,-99.99,,,-99.99,,2013-06-20 06:53:00,